Location: Dos Palmas
(32.4468°N, 116.8732°W)
Time: 14:33:57
(UTC+00:00)

Geosat - Pass Details

Date: 20 June 2021
Orbit: 762 x 766 km, 108.0° (Epoch: 26 July)

Event Time Altitude Azimuth Distance (km) Brightness Sun altitude
Exits shadow 05:23:06 43° 77° (ENE) 1,064 4.5 -24.1°
Maximum altitude 05:23:35 44° 61° (ENE) 1,045 4.6 -24.2°
Drops below altitude 10° 05:28:19 10° 350° (N) 2,302 7.3 -24.8°
Sets 05:30:41 0° 344° (NNW) 3,232 8.4 -25.1°
